Regional Weather Roundup
Issued by NWS Wakefield, VA

Home | Current Version | Previous Version | Graphics & Text | Print | Product List | Glossary On
Versions: 1 2 3 4 5 6 7 8 9 10 11 12 13 14 15 16 17 18 19 20 21 22 23 24 25 26 27
000
ASUS41 KAKQ 200114
RWRAKQ

REGIONAL WEATHER ROUNDUP
NATIONAL WEATHER SERVICE WAKEFIELD VA
800 PM EST THU JAN 19 2017

Note: "fair" indicates few or no clouds below 12,000 feet with no
significant weather and/or obstructions to visibility. * = Denotes
station may not report precipitation (e.g., rain,snow,etc.),
thunder or fog.

VAZ042-051-052>054-056-200200-
NORTHERN VIRGINIA

CITY           SKY/WX    TMP DP  RH WIND       PRES   REMARKS
WASH NATIONAL  PTCLDY    44  39  82 S6        30.04R
DULLES         CLOUDY    36  33  89 S3        30.03S
FORT BELVOIR   CLOUDY    38  35  89 CALM      30.03F
QUANTICO       CLOUDY    41  38  89 W3        30.05S
FREDERICKSBRG* CLOUDY    40  38  91 CALM      30.02F
STAFFORD*      PTCLDY    36  35  96 CALM      30.07S
WARRENTON      CLOUDY    35  33  91 CALM      30.01F
CULPEPER*      PTCLDY    35  34  94 CALM      30.03F
MANASSAS*      NOT AVBL
LEESBURG*      CLOUDY    37  37 100 MISG      30.03S
WINCHESTER     CLOUDY    36  32  87 CALM      30.01R
FRONT ROYAL*   FAIR      37  36  93 CALM      29.99F
LURAY*         FAIR      39  37  93 CALM      29.99F
$$

VAZ048-049-060>072-079>083-200200-
CENTRAL AND SOUTH CENTRAL VIRGINIA

CITY           SKY/WX    TMP DP  RH WIND       PRES   REMARKS
RICHMOND       CLOUDY    43  39  86 CALM      30.03S
CHESTERFIELD*  FAIR      41  25  52 CALM      30.04S
PETERSBURG*    CLEAR     37  37 100 CALM      30.04R
HANOVER        PTCLDY    39  36  89 CALM      30.04S
TAPPAHANNOCK*  PTCLDY    38  38 100 SE3       30.05R
QUINTON*       FAIR      40  39  97 MISG      30.03S
CHARLOTTSVILLE MOCLDY    48  39  71 CALM      30.00F
GORDONSVILLE*  FAIR      42  39  89 CALM      30.01F
ORANGE*          N/A     41  41 100 CALM      30.03F
LOUISA*        CLOUDY    43  41  93 E3        30.00F
BUMPASS*       FAIR      42  40  93 S6        30.02F
FARMVILLE*     CLOUDY    46  41  82 CALM      30.01S
CREWE*         FAIR      42  42 100 CALM      30.02R
FORT PICKETT*  FAIR      44  38  80 CALM      30.02S
CHASE CITY*    FAIR      43  41  93 CALM      30.01S
CLARKSVILLE*   FAIR      45  41  87 CALM      30.00F
SOUTH HILL*    CLOUDY    39  38  95 CALM      30.07S
LAWRENCEVILLE* FAIR      44  40  86 CALM      30.02S
EMPORIA*       CLOUDY    37  36  93 CALM      30.04R
$$

VAZ088>098-200200-
SOUTHEAST VIRGINIA

CITY           SKY/WX    TMP DP  RH WIND       PRES   REMARKS
NORFOLK        CLEAR     44  36  73 S3        30.05R
VIRGINIA BEACH PTCLDY    40  35  83 CALM      30.04S
NORFOLK NAVAL  PTCLDY    41  35  79 SE5       30.06S
WEST POINT*    CLEAR     40  35  85 CALM      30.06S
SALUDA*        FAIR      37  36  96 CALM      30.04F
NEWPORT NEWS   CLOUDY    38  35  89 CALM      30.05S
LANGLEY AFB    PTCLDY    40  36  85 CALM      30.04S
FORT EUSTIS    CLOUDY    41  33  72 CALM      30.02S
WILLIAMSBURG*  CLOUDY    43  37  81 CALM      30.06S
HR EXEC AP*    FAIR      39  36  87 E3        30.03F
FRANKLIN*      CLEAR     39  37  93 E6        30.03F
US460-WAKEFLD  PTCLDY    41  39  93 CALM      30.03F
$$

VAZ020-022-025-037-045-200200-
WEST CENTRAL AND SOUTHWEST VIRGINIA

CITY           SKY/WX    TMP DP  RH WIND       PRES   REMARKS
STAUNTON*      CLOUDY    42  38  88 CALM      30.00F
WAYNESBORO*    FAIR      46  38  72 CALM      29.99S
HOT SPRINGS VA CLOUDY    45  36  70 S8        29.95F
LYNCHBURG      CLOUDY    45  39  79 CALM      30.00F
DANVILLE       CLOUDY    42  38  85 CALM      30.00S
SOUTH BOSTON*  FAIR      44  41  89 CALM      30.01F
MARTINSVILLE   CLOUDY    42  37  81 CALM      30.00F
ROANOKE        PTCLDY    51  38  60 SE6       30.00F
BLACKSBURG     CLEAR     47  38  72 E5        30.00F
DUBLIN*        PTCLDY    53  37  55 S3        29.98F
MARION*        CLOUDY    53  37  52 E5        29.97F
HILLSVILLE*    CLOUDY    48  38  69 CALM      29.95F
RICHLANDS*     MOCLDY   N/A N/A N/A CALM      29.93F
WISE*          CLOUDY    54  45  71 S6        29.92F
ABINGDON*      CLOUDY    58  36  43 CALM      29.92S
$$

MDZ021>025-VAZ099-100-200200-
SOUTHERN MARYLAND AND THE DELMARVA PENINSULA

CITY           SKY/WX    TMP DP  RH WIND       PRES   REMARKS
PATUXENT RIVER CLOUDY    38  35  89 CALM      30.04S
BAY BRIDGE APT CLOUDY    41  36  81 CALM      30.04S
LEONARDTOWN    CLOUDY    37  34  87 CALM      30.05S
DOVER          CLOUDY    40  39  97 CALM      30.03R
GEORGETOWN     CLOUDY    39  35  86 CALM      30.05R
EASTON         CLEAR     41  36  81 CALM      30.08
CAMBRIDGE      CLOUDY    36  34  93 CALM      30.04S
SALISBURY      CLOUDY    36  34  92 CALM      30.05R
OCEAN CITY     CLOUDY    37  37 100 CALM      30.05R
WALLOPS ISLAND PTCLDY    37  37 100 CALM      30.06R
ACCOMACK*      CLOUDY    38  37  96 CALM      30.04S
$$

NCZ012>017-030>032-200200-
NORTH CENTRAL AND EASTERN NORTH CAROLINA

CITY           SKY/WX    TMP DP  RH WIND       PRES   REMARKS
ROANOKE RAPIDS FAIR      43  41  93 CALM      30.02F
RALEIGH        CLOUDY    50  40  68 CALM      30.02R
ELIZABETH CITY CLEAR     44  40  85 E7        30.05S
AHOSKIE*         N/A     40  38  92 CALM      30.03F
EDENTON*       CLEAR     43  41  90 CALM      30.04F
CURRITUCK*     CLEAR     44  41  89 E3        30.05F
KILL DEVIL HLS NOT AVBL
MANTEO         CLEAR     42  42  99 CALM      30.05F
CAPE HATTERAS  CLEAR     46  42  86 E5        30.05S FOG
TARBORO*       NOT AVBL
GOLDSBORO      PTCLDY    47  46  96 CALM      30.00S
WASHINGTON     CLEAR     45  42  89 CALM        N/A
GREENVILLE     CLOUDY    45  43  93 CALM      30.04F
NEW BERN       CLOUDY    45  41  86 CALM      30.04F
WILMINGTON     PTCLDY    46  45  96 E3        30.02F
$$

VAZ048-200200-
ELSEWHERE

CITY           SKY/WX    TMP DP  RH WIND       PRES   REMARKS
HARRISBURG PA  CLOUDY    40  35  83 CALM      30.01S
BALTIMORE      CLOUDY    42  36  79 S6        30.03R
ANNAPOLIS      CLOUDY    41  36  82 CALM      30.03S
ANDREWS AFB    CLEAR     38  34  86 CALM      30.02S
PHILADELPHIA   CLOUDY    41  33  73 NE6       30.03F
HENDERSON NC   CLOUDY    42  38  86 CALM      30.01S
GREENSBORO     CLOUDY    51  39  63 E3        29.98F
ROCKY MOUNT    CLOUDY    44  42  93 CALM      30.03R
$$

VAZ100-200200-
MARINE

STATION/POSITION TIME  TEMP    WIND        PRES    WAVE   SWELL
                       AIR SEA DIR/SP/G            HT/PER HT/PER
                 (UTC) (F)     (DEG/KT/KT) (MB)    (FT/S) (FT/S)
CAPE MAY NJ      0042   42 40  360/  2/  4 1016.6R
LEWES DE         0042   43 42  260/  2/  3 1017.1R
OCEAN-CITY-INLET 0042   42 43   CALM  /  2 1017.7R
WACHAPREAGUE VA  0036   41 50  270/  3/  3 1017.5R
THOMAS POINT MD  0000   42 39  220/  8/  8   N/A
GOOSES REEF MD   0050   41     260/  2/  2 1017.7R
COVE POINT MD    0036   44     200/  4/  4 1017.7S
SOLOMONS ISLAND  0036   41 41     CALM       N/A
BISHOPS HEAD MD  0042   43 45  200/  3/  3 1017.5R
PINEY POINT MD   0036          170/  3/  3   N/A
POTOMAC MD       0050   42     190/  4/  4 1016.4R
CAMBRIDGE MD     0036   42 40  210/  2/  3 1016.5R
LEWISETTA VA     0036   43 44  200/  3/  3 1017.0F
RAPPAHANNOCK LGT 0036          160/  3/  3 1017.9F
STINGRAY PT      0050   42     200/  2/  4 1017.8F
YORK RVR RNG VA  0036   44      80/  5/  5 1016.7F
YORKTOWN VA      0036   44 43  110/  2/  2 1017.1S
JAMESTOWN VA     0050   45      80/  4/  6   N/A
DOMINION TERM VA 0036   45     120/  6/  7 1017.4R
KIPTOPEKE VA     0036      44   70/  3/  3   N/A
CHES BAY BRIDGE  0036   45 46  190/  5/  6 1017.4R
CAPE HENRY VA    0036   44     180/  6/  7   N/A
WILLOUBY STN VA  0036   45     160/  6/  6 1018.2R
S CRANEY ISL VA  0036   45     140/  5/  5 1017.3R
CAPE HENRY BUOY  0042      48                N/A     3/10   2/11
OFFSHORE WE BUOY 0051      49                N/A     4/ 9   2/11
64NM E OF VA BCH 2350   48 56  300/  6/  8 1017.7    5/10   5/10
DUCK PIER NC     0036   45 45   70/  5/  6 1017.0R
44100 DUCK FRF   0005      47                N/A     5/ 9   2/11
44056 DUCK FRF   0030      45                N/A     4/ 9   2/11
OREGON INLET NC  0036   44 49  100/  2/  3 1017.7R
HATTERAS NC      0036   47 55   80/  4/  5 1017.2S
DIAMOND SHLS NC  2350   54 77   20/  6/ 10 1017.7    5/10   5/10
CAPE LOOKOUT NC  0000   55      40/  4/  6 1016.9R
$$




USA.gov is the U.S. government's official web portal to all federal, state and local government web resources and services.